STARLINK-1132, 45044

Orbit data source: Space-Track

STARLINK-1132, 45044 is a payload satellite owned by SpaceX/Seattle (US) in LEO that was launched on Wed, 29 Jan 2020 UTC via an FALCON 9 launch vehicle from the Air Force Eastern Test Range (AFETR). Payload-class satellites include a variety of spacecraft equipped with specific instruments for various scientific and technological missions. These include communications satellites like Starlink; space stations such as the ISS; scientific satellites like the Hubble; Earth observation satellites from companies like Planet Labs, Umbra, and HawkEye 360; GPS; miniature CubeSats for education and research; and military/defense satellites.

Loading next visibility...
Identifier
45044, 2020-006A
Orbit
LEO
Country
Flag of USUS
Related business
Manufacturer
SpaceX/Seattle
Mission
Partially operational Commercial Communications
Bus & Motor
STARLINK, Unknown motor
Mass
260 kg wet, ~248 kg dry
Launch date (UTC)
2020-01-29 (6 years ago)
Launch vehicle
FALCON 9
Launch site
Air Force Eastern Test Range (AFETR)
Object type
Payload
Rocket body
Debris
Shape & HBR
Box + 1 Pan, 10.1 m
Radar Cross Section
13.562 m², Large (>1 m²)

Expand to show TLE details & history
Last TLE update: 19 hours ago

TLE from 19 hours ago
0 STARLINK-1132
1 45044U 20006A   26140.70177434  .00052699  00000-0  83432-3 0  9995
2 45044  53.1513 270.1937 0000766 335.3299  24.7675 15.52936631348084
Epoch: 2026-05-20T16:50Z
TLE epoch observation values (Epoch: 2026-05-20T16:50:33.302Z)
Latitude
-0.00003°
Longitude
139.19737°
Altitude
408.593 km
Speed
7.667 km/s
True Right ascension
18h 00m 46s
True Declination
0° 00' 00"
Sunlit
Object was in full shadow at epoch
Visualization orbit readout
Latitude
Unknown
Longitude
Unknown
Altitude
Unknown
Speed
Unknown
Apparent Right ascension
Unknown
Apparent Declination
Unknown
Sunlit
N/A
Visualization observer readout
Local Sidereal Time
20:35:26
Azimuth
Unknown
Elevation
Unknown
Doppler factor
Unknown
Orbital elements
Apogee altitude
408.937 km
Perigee altitude
407.898 km
Semi-major axis
6,786.555 km
Eccentricity
0.00008
Inclination
53.1513°
RAAN
270.1937°
Arg. of periapsis
335.3299°
True anomaly
24.77118°
Mean anomaly
24.7675°
Eccentric anomaly
24.76934°
Mean motion
3.88212 °/min
Orbital period
92.73 mins
BSTAR
0.00083432
Loading maneuver chart data...
Computing Atmospheric mass density...

Documentation

Showing up to 5 results
|